Location: *
(51.5000°N, 0.1100°W)
Time: 17:12:33
(UTC+00:00)

Cosmos 2237 - Pass Details

Date: 25 May 2024
Orbit: 844 x 857 km, 70.8° (Epoch: 16 June)

Event Time Altitude Azimuth Distance (km) Brightness Sun altitude
Rises 01:29:00 0° 327° (NNW) 3,441 7.9 -14.8°
Reaches altitude 10° 01:31:30 10° 323° (NW) 2,501 7.1 -14.6°
Maximum altitude 01:37:05 55° 247° (WSW) 1,027 4.4 -14.3°
Enters shadow 01:41:42 15° 174° (S) 2,142 5.8 -14.0°
